Time,TemperatureF,DewpointF,PressureIn,WindDirection,WindDirectionDegrees,WindSpeedMPH,WindSpeedGustMPH,Humidity,HourlyPrecipIn,Conditions,Clouds,dailyrainin,SoftwareType,DateUTC
2013-02-26 00:00:00,33.5,23.2,30.13,North,0,0.0,0.0,66,0.00,,,0.00,WUHU216HW,2013-02-26 05:00:00,
2013-02-26 00:05:00,33.5,23.2,30.13,North,0,0.0,0.0,66,0.00,,,0.00,WUHU216HW,2013-02-26 05:05:00,
2013-02-26 00:30:00,34.7,24.5,30.12,North,0,0.0,0.0,66,0.00,,,0.00,WUHU216HW,2013-02-26 05:30:00,
2013-02-26 00:35:00,34.7,24.5,30.12,North,0,0.0,0.0,66,0.00,,,0.00,WUHU216HW,2013-02-26 05:35:00,
2013-02-26 01:00:00,35.6,25.4,30.12,North,0,0.0,0.0,66,0.00,,,0.00,WUHU216HW,2013-02-26 06:00:00,
2013-02-26 01:05:00,35.6,25.4,30.12,North,0,0.0,0.0,66,0.00,,,0.00,WUHU216HW,2013-02-26 06:05:00,
2013-02-26 01:30:00,36.4,24.9,30.11,North,0,0.0,0.0,63,0.00,,,0.00,WUHU216HW,2013-02-26 06:30:00,
2013-02-26 01:35:00,36.4,24.9,30.11,North,0,0.0,0.0,63,0.00,,,0.00,WUHU216HW,2013-02-26 06:35:00,
2013-02-26 02:00:00,36.9,25.1,30.10,North,0,0.0,0.0,62,0.00,,,0.00,WUHU216HW,2013-02-26 07:00:00,
2013-02-26 02:05:00,36.9,25.1,30.10,North,0,0.0,0.0,62,0.00,,,0.00,WUHU216HW,2013-02-26 07:05:00,
2013-02-26 02:30:00,37.3,25.0,30.09,North,0,0.0,0.0,61,0.00,,,0.00,WUHU216HW,2013-02-26 07:30:00,
2013-02-26 02:35:00,37.3,25.0,30.09,North,0,0.0,0.0,61,0.00,,,0.00,WUHU216HW,2013-02-26 07:35:00,
2013-02-26 03:00:00,37.4,25.2,30.07,North,0,0.0,0.0,61,0.00,,,0.00,WUHU216HW,2013-02-26 08:00:00,
2013-02-26 03:05:00,37.4,25.2,30.07,North,0,0.0,0.0,61,0.00,,,0.00,WUHU216HW,2013-02-26 08:05:00,
2013-02-26 03:30:00,37.3,24.7,30.06,North,0,0.0,0.0,60,0.00,,,0.00,WUHU216HW,2013-02-26 08:30:00,
2013-02-26 03:35:00,37.3,24.7,30.06,North,0,0.0,0.0,60,0.00,,,0.00,WUHU216HW,2013-02-26 08:35:00,
2013-02-26 04:00:00,37.1,24.9,30.03,North,0,0.0,0.0,61,0.00,,,0.00,WUHU216HW,2013-02-26 09:00:00,
2013-02-26 04:05:00,37.1,24.9,30.03,North,0,0.0,0.0,61,0.00,,,0.00,WUHU216HW,2013-02-26 09:05:00,
2013-02-26 04:30:00,37.1,24.9,30.03,North,0,0.0,0.0,61,0.00,,,0.00,WUHU216HW,2013-02-26 09:30:00,
2013-02-26 04:35:00,37.1,24.9,30.03,North,0,0.0,0.0,61,0.00,,,0.00,WUHU216HW,2013-02-26 09:35:00,
2013-02-26 05:00:00,36.7,24.9,30.02,North,0,0.0,0.0,62,0.00,,,0.00,WUHU216HW,2013-02-26 10:00:00,
2013-02-26 05:05:00,36.7,24.9,30.02,North,0,0.0,0.0,62,0.00,,,0.00,WUHU216HW,2013-02-26 10:05:00,
2013-02-26 05:30:00,36.7,24.9,30.03,North,0,0.0,0.0,62,0.00,,,0.00,WUHU216HW,2013-02-26 10:30:00,
2013-02-26 05:35:00,36.7,24.9,30.03,North,0,0.0,0.0,62,0.00,,,0.00,WUHU216HW,2013-02-26 10:35:00,
2013-02-26 06:00:00,36.7,25.7,30.02,North,0,0.0,0.0,64,0.00,,,0.00,WUHU216HW,2013-02-26 11:00:00,
2013-02-26 06:05:00,36.7,25.7,30.02,North,0,0.0,0.0,64,0.00,,,0.00,WUHU216HW,2013-02-26 11:05:00,
2013-02-26 06:30:00,36.7,26.0,30.01,North,0,0.0,0.0,65,0.00,,,0.00,WUHU216HW,2013-02-26 11:30:00,
2013-02-26 06:35:00,36.7,26.0,30.01,North,0,0.0,0.0,65,0.00,,,0.00,WUHU216HW,2013-02-26 11:35:00,
2013-02-26 07:00:00,36.4,25.4,30.00,North,0,0.0,0.0,64,0.02,,,0.00,WUHU216HW,2013-02-26 12:00:00,
2013-02-26 07:05:00,36.4,25.4,30.00,North,0,0.0,0.0,64,0.02,,,0.00,WUHU216HW,2013-02-26 12:05:00,
2013-02-26 07:30:00,35.8,20.8,29.99,North,0,0.0,0.0,54,0.08,,,0.02,WUHU216HW,2013-02-26 12:30:00,
2013-02-26 07:35:00,35.8,20.8,29.99,North,0,0.0,0.0,54,0.08,,,0.02,WUHU216HW,2013-02-26 12:35:00,
2013-02-26 08:00:00,35.6,14.2,29.98,North,0,0.0,0.0,41,0.12,,,0.09,WUHU216HW,2013-02-26 13:00:00,
2013-02-26 08:05:00,35.6,14.2,29.98,North,0,0.0,0.0,41,0.12,,,0.09,WUHU216HW,2013-02-26 13:05:00,
2013-02-26 08:30:00,35.8,7.4,29.97,North,0,0.0,0.0,30,0.09,,,0.15,WUHU216HW,2013-02-26 13:30:00,
2013-02-26 08:35:00,35.8,7.4,29.97,North,0,0.0,0.0,30,0.09,,,0.15,WUHU216HW,2013-02-26 13:35:00,
2013-02-26 09:00:00,36.2,4.2,29.96,North,0,0.0,0.0,26,0.08,,,0.19,WUHU216HW,2013-02-26 14:00:00,
2013-02-26 09:05:00,36.2,4.2,29.96,North,0,0.0,0.0,26,0.08,,,0.19,WUHU216HW,2013-02-26 14:05:00,
2013-02-26 09:30:00,36.5,-6.4,29.94,North,0,0.0,0.0,16,0.11,,,0.24,WUHU216HW,2013-02-26 14:30:00,
2013-02-26 09:35:00,36.5,-6.4,29.94,North,0,0.0,0.0,16,0.11,,,0.24,WUHU216HW,2013-02-26 14:35:00,
2013-02-26 10:00:00,37.8,-6.8,29.91,North,0,0.0,0.0,15,0.09,,,0.30,WUHU216HW,2013-02-26 15:00:00,
2013-02-26 10:05:00,37.8,-6.8,29.91,North,0,0.0,0.0,15,0.09,,,0.30,WUHU216HW,2013-02-26 15:05:00,
2013-02-26 10:30:00,38.5,-13.3,29.88,North,0,0.0,0.0,6,0.08,,,0.34,WUHU216HW,2013-02-26 15:30:00,
2013-02-26 10:35:00,38.5,-13.3,29.88,North,0,0.0,0.0,6,0.08,,,0.34,WUHU216HW,2013-02-26 15:35:00,
2013-02-26 11:00:00,39.4,-12.6,29.86,North,0,0.0,0.0,4,0.07,,,0.38,WUHU216HW,2013-02-26 16:00:00,
2013-02-26 11:05:00,39.4,-12.6,29.86,North,0,0.0,0.0,4,0.07,,,0.38,WUHU216HW,2013-02-26 16:05:00,
2013-02-26 11:30:00,40.0,-12.2,29.82,North,0,0.0,0.0,1,0.05,,,0.41,WUHU216HW,2013-02-26 16:30:00,
2013-02-26 11:35:00,40.0,-12.2,29.82,North,0,0.0,0.0,1,0.05,,,0.41,WUHU216HW,2013-02-26 16:35:00,
2013-02-26 12:00:00,41.2,-11.2,29.79,North,0,0.0,0.0,1,0.03,,,0.43,WUHU216HW,2013-02-26 17:00:00,
2013-02-26 12:05:00,41.2,-11.2,29.79,North,0,0.0,0.0,1,0.03,,,0.43,WUHU216HW,2013-02-26 17:05:00,
2013-02-26 12:30:00,42.7,-10.2,29.76,North,0,0.0,0.0,1,0.07,,,0.44,WUHU216HW,2013-02-26 17:30:00,
2013-02-26 12:35:00,42.7,-10.2,29.76,North,0,0.0,0.0,1,0.07,,,0.44,WUHU216HW,2013-02-26 17:35:00,
2013-02-26 13:00:00,43.6,-9.5,29.73,North,0,0.0,0.0,1,0.05,,,0.50,WUHU216HW,2013-02-26 18:00:00,
2013-02-26 13:05:00,43.6,-9.5,29.73,North,0,0.0,0.0,1,0.05,,,0.50,WUHU216HW,2013-02-26 18:05:00,
2013-02-26 13:30:00,44.8,-8.4,29.70,North,0,0.0,0.0,1,0.03,,,0.50,WUHU216HW,2013-02-26 18:30:00,
2013-02-26 13:35:00,44.8,-8.4,29.70,North,0,0.0,0.0,1,0.03,,,0.50,WUHU216HW,2013-02-26 18:35:00,
2013-02-26 14:00:00,46.6,-7.0,29.66,North,0,0.0,0.0,1,0.08,,,0.53,WUHU216HW,2013-02-26 19:00:00,
2013-02-26 14:05:00,46.6,-7.0,29.66,North,0,0.0,0.0,1,0.08,,,0.53,WUHU216HW,2013-02-26 19:05:00,
2013-02-26 14:30:00,47.9,-6.0,29.63,North,0,0.0,0.0,1,0.07,,,0.58,WUHU216HW,2013-02-26 19:30:00,
2013-02-26 14:35:00,47.9,-6.0,29.63,North,0,0.0,0.0,1,0.07,,,0.58,WUHU216HW,2013-02-26 19:35:00,
2013-02-26 15:00:00,49.3,-5.0,29.61,North,0,0.0,0.0,1,0.03,,,0.60,WUHU216HW,2013-02-26 20:00:00,
2013-02-26 15:05:00,49.3,-5.0,29.61,North,0,0.0,0.0,1,0.03,,,0.60,WUHU216HW,2013-02-26 20:05:00,
2013-02-26 15:30:00,49.7,-4.8,29.59,North,0,0.0,0.0,1,0.01,,,0.61,WUHU216HW,2013-02-26 20:30:00,
2013-02-26 15:35:00,49.7,-4.8,29.59,North,0,0.0,0.0,1,0.01,,,0.61,WUHU216HW,2013-02-26 20:35:00,
2013-02-26 16:00:00,50.4,-4.2,29.57,North,0,0.0,0.0,1,0.02,,,0.61,WUHU216HW,2013-02-26 21:00:00,
2013-02-26 16:05:00,50.4,-4.2,29.57,North,0,0.0,0.0,1,0.02,,,0.61,WUHU216HW,2013-02-26 21:05:00,
2013-02-26 16:30:00,51.1,-3.6,29.58,North,0,0.0,0.0,1,0.04,,,0.63,WUHU216HW,2013-02-26 21:30:00,
2013-02-26 16:35:00,51.1,-3.6,29.58,North,0,0.0,0.0,1,0.04,,,0.63,WUHU216HW,2013-02-26 21:35:00,
2013-02-26 17:00:00,51.5,-3.3,29.56,North,0,0.0,0.0,1,0.02,,,0.65,WUHU216HW,2013-02-26 22:00:00,
2013-02-26 17:05:00,51.5,-3.3,29.56,North,0,0.0,0.0,1,0.02,,,0.65,WUHU216HW,2013-02-26 22:05:00,
2013-02-26 17:30:00,52.0,-2.9,29.56,North,0,0.0,0.0,1,0.00,,,0.65,WUHU216HW,2013-02-26 22:30:00,
2013-02-26 17:35:00,52.0,-2.9,29.56,North,0,0.0,0.0,1,0.00,,,0.65,WUHU216HW,2013-02-26 22:35:00,
2013-02-26 18:00:00,52.2,-2.8,29.58,North,0,0.0,0.0,1,0.00,,,0.65,WUHU216HW,2013-02-26 23:00:00,
2013-02-26 18:05:00,52.2,-2.8,29.58,North,0,0.0,0.0,1,0.00,,,0.65,WUHU216HW,2013-02-26 23:05:00,
2013-02-26 18:30:00,52.2,-2.8,29.60,North,0,0.0,0.0,1,0.00,,,0.65,WUHU216HW,2013-02-26 23:30:00,
2013-02-26 18:35:00,52.2,-2.8,29.60,North,0,0.0,0.0,1,0.00,,,0.65,WUHU216HW,2013-02-26 23:35:00,
2013-02-26 19:00:00,50.4,-4.2,29.60,North,0,0.0,0.0,1,0.00,,,0.65,WUHU216HW,2013-02-27 00:00:00,
2013-02-26 19:05:00,50.4,-4.2,29.60,North,0,0.0,0.0,1,0.00,,,0.65,WUHU216HW,2013-02-27 00:05:00,
2013-02-26 19:30:00,48.8,-5.4,29.60,North,0,0.0,0.0,1,0.00,,,0.65,WUHU216HW,2013-02-27 00:30:00,
2013-02-26 19:35:00,48.8,-5.4,29.60,North,0,0.0,0.0,1,0.00,,,0.65,WUHU216HW,2013-02-27 00:35:00,
2013-02-26 20:00:00,47.3,-6.5,29.62,North,0,0.0,0.0,1,0.00,,,0.65,WUHU216HW,2013-02-27 01:00:00,
2013-02-26 20:05:00,47.3,-6.5,29.62,North,0,0.0,0.0,1,0.00,,,0.65,WUHU216HW,2013-02-27 01:05:00,
2013-02-26 20:30:00,45.9,-7.6,29.64,North,0,0.0,0.0,1,0.00,,,0.65,WUHU216HW,2013-02-27 01:30:00,
2013-02-26 20:35:00,45.9,-7.6,29.64,North,0,0.0,0.0,1,0.00,,,0.65,WUHU216HW,2013-02-27 01:35:00,
2013-02-26 21:00:00,44.5,-8.8,29.63,North,0,0.0,0.0,1,0.00,,,0.65,WUHU216HW,2013-02-27 02:00:00,
2013-02-26 21:05:00,44.5,-8.8,29.63,North,0,0.0,0.0,1,0.00,,,0.65,WUHU216HW,2013-02-27 02:05:00,
2013-02-26 21:30:00,44.3,-8.9,29.64,North,0,0.0,0.0,1,0.00,,,0.65,WUHU216HW,2013-02-27 02:30:00,
2013-02-26 21:35:00,44.3,-8.9,29.64,North,0,0.0,0.0,1,0.00,,,0.65,WUHU216HW,2013-02-27 02:35:00,
2013-02-26 22:00:00,43.9,-9.2,29.65,North,0,0.0,0.0,1,0.00,,,0.65,WUHU216HW,2013-02-27 03:00:00,
2013-02-26 22:05:00,43.9,-9.2,29.65,North,0,0.0,0.0,1,0.00,,,0.65,WUHU216HW,2013-02-27 03:05:00,
2013-02-26 22:30:00,43.7,-9.4,29.64,North,0,0.0,0.0,1,0.00,,,0.65,WUHU216HW,2013-02-27 03:30:00,
2013-02-26 22:35:00,43.7,-9.4,29.64,North,0,0.0,0.0,1,0.00,,,0.65,WUHU216HW,2013-02-27 03:35:00,
2013-02-26 23:00:00,43.4,-9.6,29.64,North,0,0.0,0.0,1,0.00,,,0.65,WUHU216HW,2013-02-27 04:00:00,
2013-02-26 23:05:00,43.4,-9.6,29.64,North,0,0.0,0.0,1,0.00,,,0.65,WUHU216HW,2013-02-27 04:05:00,
2013-02-26 23:30:00,43.0,-9.9,29.65,North,0,0.0,0.0,1,0.00,,,0.65,WUHU216HW,2013-02-27 04:30:00,
2013-02-26 23:35:00,43.0,-9.9,29.65,North,0,0.0,0.0,1,0.00,,,0.65,WUHU216HW,2013-02-27 04:35:00,